Weather History for Cumberland, WI

Change the Weather History Date:

Wednesday, May 22, 2013

  Actual Average (KRPD) Record (KRPD)
Temperature  
Mean Temperature 48 °F -  
Max Temperature 53 °F 65 °F 82 °F (2007)
Min Temperature 42 °F 43 °F 33 °F (2006)
Degree Days  
Heating Degree Days 18    
Moisture  
Dew Point 43 °F    
Average Humidity 84    
Maximum Humidity 93    
Minimum Humidity 66    
Precipitation  
Precipitation 0.00 in - - ()
Sea Level Pressure  
Sea Level Pressure 29.80 in    
Wind  
Wind Speed 12 mph (NNE)    
Max Wind Speed 23 mph    
Max Gust Speed 28 mph    
Visibility 10 miles    
Events Rain    
Averages and records for this station are not official NWS values.
T = Trace of Precipitation, MM = Missing Value Source: NWS Daily Summary

Daily Weather History Graph

Daily Weather History Graph

Search for Another Location

Airport:

Trip Planner

Search our weather history database for the weather conditions in past years. The results will help you decide how hot, cold, wet, or windy it might be!

Date:

Astronomy

May. 22, 2013 Rise Set
Actual Time 5:29 AM CDT 8:40 PM CDT
Civil Twilight 4:54 AM CDT 9:15 PM CDT
Nautical Twilight 4:08 AM CDT 10:02 PM CDT
Astronomical Twilight 3:11 AM CDT 10:59 PM CDT
Moon 5:56 PM CDT (5/22) 3:42 AM CDT (5/22)
Length of Visible Light 16h 21m
Length of Day
15h 10m
Waxing Gibbous, 91% of the Moon is Illuminated
May 22
Waxing Gibbous
May 24
Full
May 31
Last Quarter
Jun 8
New
Jun 16
First Quarter

Hourly Weather History & Observations

Time (CDT) Temp. Windchill Dew Point Humidity Pressure Visibility Wind Dir Wind Speed Gust Speed Precip Events Conditions
12:15 AM 44.6 °F 39.7 °F 42.8 °F 93% 29.71 in 10.0 mi NNE 9.2 mph - N/A   Overcast
12:35 AM 44.6 °F 40.2 °F 42.8 °F 93% 29.72 in 10.0 mi NNE 8.1 mph - N/A   Overcast
12:55 AM 44.6 °F 39.2 °F 41.0 °F 87% 29.72 in 10.0 mi NNE 10.4 mph - N/A   Overcast
1:15 AM 44.6 °F 39.2 °F 41.0 °F 87% 29.72 in 10.0 mi NNE 10.4 mph - N/A   Overcast
1:35 AM 42.8 °F 37.5 °F 41.0 °F 93% 29.72 in 10.0 mi NNE 9.2 mph - N/A   Overcast
1:55 AM 42.8 °F 37.5 °F 41.0 °F 93% 29.72 in 10.0 mi NNE 9.2 mph - N/A   Overcast
2:15 AM 42.8 °F 38.0 °F 41.0 °F 93% 29.71 in 10.0 mi North 8.1 mph - N/A   Overcast
2:35 AM 42.8 °F 37.5 °F 41.0 °F 93% 29.71 in 10.0 mi NNE 9.2 mph - N/A   Overcast
2:55 AM 42.8 °F 38.6 °F 41.0 °F 93% 29.71 in 10.0 mi NNE 6.9 mph - N/A   Overcast
3:15 AM 42.8 °F 37.0 °F 41.0 °F 93% 29.71 in 10.0 mi NNE 10.4 mph - N/A   Overcast
3:35 AM 42.8 °F 38.0 °F 41.0 °F 93% 29.72 in 10.0 mi NNE 8.1 mph - N/A   Overcast
3:55 AM 42.8 °F 37.5 °F 41.0 °F 93% 29.72 in 10.0 mi NNE 9.2 mph - N/A   Overcast
4:15 AM 42.8 °F 37.0 °F 41.0 °F 93% 29.74 in 10.0 mi NNE 10.4 mph - N/A   Overcast
4:35 AM 42.8 °F 37.5 °F 41.0 °F 93% 29.74 in 10.0 mi NNE 9.2 mph - N/A   Overcast
4:55 AM 42.8 °F 36.6 °F 41.0 °F 93% 29.73 in 10.0 mi NNE 11.5 mph - N/A   Overcast
5:15 AM 42.8 °F 37.5 °F 41.0 °F 93% 29.74 in 10.0 mi NNE 9.2 mph - N/A   Overcast
5:35 AM 42.8 °F 38.0 °F 41.0 °F 93% 29.74 in 10.0 mi NNE 8.1 mph - N/A   Overcast
5:55 AM 42.8 °F 38.0 °F 41.0 °F 93% 29.74 in 10.0 mi NNE 8.1 mph - N/A   Overcast
6:15 AM 42.8 °F 39.3 °F 41.0 °F 93% 29.74 in 10.0 mi NNE 5.8 mph - N/A   Overcast
6:35 AM 42.8 °F 37.5 °F 41.0 °F 93% 29.74 in 10.0 mi NNE 9.2 mph - N/A   Overcast
6:55 AM 42.8 °F 37.5 °F 41.0 °F 93% 29.74 in 10.0 mi NNE 9.2 mph - N/A   Overcast
7:15 AM 42.8 °F 37.0 °F 41.0 °F 93% 29.73 in 10.0 mi NNE 10.4 mph - N/A   Overcast
7:35 AM 44.6 °F 39.2 °F 41.0 °F 87% 29.74 in 10.0 mi NNE 10.4 mph - N/A   Overcast
7:55 AM 44.6 °F 39.7 °F 42.8 °F 93% 29.74 in 10.0 mi NE 9.2 mph - N/A   Overcast
8:15 AM 44.6 °F 41.4 °F 42.8 °F 93% 29.74 in 10.0 mi North 5.8 mph - N/A   Overcast
8:35 AM 44.6 °F 38.8 °F 42.8 °F 93% 29.74 in 10.0 mi North 11.5 mph - N/A   Overcast
8:55 AM 44.6 °F 39.2 °F 42.8 °F 93% 29.75 in 10.0 mi NNE 10.4 mph 16.1 mph N/A   Overcast
9:15 AM 44.6 °F 39.2 °F 42.8 °F 93% 29.75 in 10.0 mi NE 10.4 mph - N/A   Overcast
9:35 AM 46.4 °F 40.7 °F 42.8 °F 87% 29.75 in 10.0 mi NNE 12.7 mph - N/A   Overcast
9:55 AM 46.4 °F 41.1 °F 42.8 °F 87% 29.75 in 10.0 mi NNE 11.5 mph 16.1 mph N/A   Overcast
10:15 AM 48.2 °F - 44.6 °F 87% 29.74 in 10.0 mi NNE 13.8 mph - N/A   Overcast
10:35 AM 50.0 °F - 44.6 °F 82% 29.75 in 10.0 mi North 15.0 mph 20.7 mph N/A   Overcast
10:55 AM 50.0 °F - 44.6 °F 82% 29.76 in 10.0 mi NNE 12.7 mph 17.3 mph N/A   Overcast
11:15 AM 50.0 °F - 44.6 °F 82% 29.76 in 10.0 mi NNE 15.0 mph - N/A   Overcast
11:35 AM 50.0 °F - 44.6 °F 82% 29.77 in 10.0 mi NNE 12.7 mph - N/A   Overcast
11:55 AM 50.0 °F - 44.6 °F 82% 29.77 in 10.0 mi NNE 16.1 mph 20.7 mph N/A   Overcast
12:15 PM 50.0 °F - 44.6 °F 82% 29.77 in 10.0 mi NNE 15.0 mph - N/A   Overcast
12:35 PM 51.8 °F - 44.6 °F 76% 29.76 in 10.0 mi NNE 16.1 mph - N/A   Overcast
12:55 PM 51.8 °F - 46.4 °F 82% 29.76 in 10.0 mi NNE 15.0 mph 19.6 mph N/A   Overcast
1:15 PM 53.6 °F - 46.4 °F 77% 29.76 in 10.0 mi NNE 13.8 mph 20.7 mph N/A   Overcast
1:35 PM 53.6 °F - 44.6 °F 72% 29.77 in 10.0 mi NNE 15.0 mph - N/A   Overcast
1:55 PM 51.8 °F - 44.6 °F 76% 29.78 in 10.0 mi North 15.0 mph 20.7 mph N/A   Overcast
2:15 PM 51.8 °F - 44.6 °F 76% 29.78 in 10.0 mi NNE 16.1 mph 20.7 mph N/A   Overcast
2:35 PM 51.8 °F - 44.6 °F 76% 29.79 in 10.0 mi NNE 13.8 mph 24.2 mph N/A   Overcast
2:55 PM 51.8 °F - 44.6 °F 76% 29.79 in 10.0 mi NNE 17.3 mph 23.0 mph N/A   Overcast
3:15 PM 51.8 °F - 44.6 °F 76% 29.80 in 10.0 mi NNE 15.0 mph 23.0 mph N/A   Overcast
3:35 PM 51.8 °F - 44.6 °F 76% 29.80 in 10.0 mi NNE 18.4 mph 24.2 mph N/A Rain Light Rain
3:55 PM 50.0 °F - 44.6 °F 82% 29.81 in 10.0 mi NNE 15.0 mph 25.3 mph N/A   Overcast
4:15 PM 50.0 °F - 44.6 °F 82% 29.81 in 10.0 mi NNE 19.6 mph 24.2 mph N/A Rain Light Rain
4:35 PM 50.0 °F - 44.6 °F 82% 29.81 in 10.0 mi NNE 17.3 mph 24.2 mph N/A   Light Drizzle
4:55 PM 50.0 °F - 44.6 °F 82% 29.82 in 10.0 mi NNE 17.3 mph 26.5 mph N/A Rain Light Rain
5:15 PM 48.2 °F - 42.8 °F 82% 29.83 in 10.0 mi NE 23.0 mph 27.6 mph N/A   Light Drizzle
5:35 PM 48.2 °F - 42.8 °F 82% 29.84 in 10.0 mi North 17.3 mph 21.9 mph N/A   Overcast
5:55 PM 48.2 °F - 44.6 °F 87% 29.84 in 10.0 mi NNE 15.0 mph 21.9 mph N/A Rain Light Rain
6:15 PM 46.4 °F 40.1 °F 44.6 °F 93% 29.85 in 10.0 mi NNE 15.0 mph 23.0 mph N/A Rain Light Rain
6:35 PM 48.2 °F - 44.6 °F 87% 29.86 in 10.0 mi NNE 16.1 mph 19.6 mph N/A   Overcast
6:55 PM 48.2 °F - 44.6 °F 87% 29.87 in 10.0 mi NE 13.8 mph 23.0 mph N/A   Overcast
7:15 PM 50.0 °F - 44.6 °F 82% 29.87 in 10.0 mi NE 18.4 mph 25.3 mph N/A   Overcast
7:35 PM 50.0 °F - 44.6 °F 82% 29.88 in 10.0 mi NE 19.6 mph 25.3 mph N/A   Overcast
7:55 PM 50.0 °F - 44.6 °F 82% 29.89 in 10.0 mi NE 15.0 mph 21.9 mph N/A   Overcast
8:15 PM 50.0 °F - 44.6 °F 82% 29.89 in 10.0 mi NE 18.4 mph 25.3 mph N/A   Overcast
8:35 PM 50.0 °F - 44.6 °F 82% 29.90 in 10.0 mi NE 17.3 mph 27.6 mph N/A   Overcast
8:55 PM 51.8 °F - 42.8 °F 71% 29.90 in 10.0 mi NE 21.9 mph 27.6 mph N/A   Overcast
9:15 PM 51.8 °F - 41.0 °F 67% 29.92 in 10.0 mi NNE 16.1 mph - N/A   Overcast
9:35 PM 50.0 °F - 41.0 °F 71% 29.93 in 10.0 mi NE 15.0 mph - N/A   Overcast
9:55 PM 50.0 °F - 41.0 °F 71% 29.94 in 10.0 mi NE 16.1 mph 23.0 mph N/A   Overcast
10:15 PM 50.0 °F - 41.0 °F 71% 29.95 in 10.0 mi NE 15.0 mph 24.2 mph N/A   Overcast
10:35 PM 50.0 °F - 41.0 °F 71% 29.96 in 10.0 mi NNE 13.8 mph - N/A   Overcast
10:55 PM 50.0 °F - 41.0 °F 71% 29.97 in 10.0 mi NNE 13.8 mph 23.0 mph N/A   Overcast
11:15 PM 50.0 °F - 41.0 °F 71% 29.98 in 10.0 mi NE 17.3 mph 23.0 mph N/A   Overcast
11:35 PM 50.0 °F - 39.2 °F 66% 29.98 in 10.0 mi NE 16.1 mph 23.0 mph N/A   Mostly Cloudy
11:55 PM 50.0 °F - 39.2 °F 66% 30.00 in 10.0 mi NNE 18.4 mph 23.0 mph N/A   Scattered Clouds